User: anonymous   Login
Location: Camp Creek
(33.9000°N, 111.8167°W)
Time: 07:01:49
(UTC-07:00)
Language:

DELTA 2 R/B (1) - Orbit

View from above orbital plane
View from above orbital plane
View from above satellite
View from above satellite

Ground track
Ground track

The orbit data is extracted from the following two-line orbital elements,

1 27665U 03005C   17324.68965471  .00000039  00000-0  48922-4 0  9998
2 27665  39.5773  33.3732 0008576 212.5834 286.8823 14.28460407773318
Epoch (UTC): 20 November 2017 16:33:06
Eccentricity: 0.0008576
inclination: 39.5773°
perigee height: 791 km
apogee height: 803 km
right ascension of ascending node: 33.3732°
argument of perigee: 212.5834°
revolutions per day: 14.28460407
mean anomaly at epoch: 286.8823°
orbit number at epoch: 77331

The dashed part of the orbit path shows where the satellite is in the earth's shadow,  

DLR